Date String (YYYY-MM-DD hh:mm:ss) UTC,Instrument flags,Ambient pressure (hPa),Sample flow (lpm),Bypass flow (lpm),Sample temperature (°C),Ambient temperature (°C),ASC tube jacket temperature (°C),LED temperature (°C),Box temperature (°C),Sample RH (%),Span deviation,Mass concentration (μg/m³),Mass concentration (μg/m³),Mass concentration (μg/m³)
DateTimeUTC,F1_M11,P_M11,Q1_M11,Q2_M11,T1_M11,T2_M11,T3_M11,T4_M11,T5_M11,U1_M11,ZSPAN_M11,X0_M11,X2_M11,X1_M11
2022-03-14 22:00:00,,0829.5,5.00,0.00,28.1,27.5,00.0,37.1,29.8,07.2,0000.0,0006.88,0003.29,0002.51
2022-03-14 22:01:00,,0829.4,5.01,0.00,28.1,27.5,00.0,37.1,29.8,07.1,0000.0,0007.31,0003.33,0002.56
2022-03-14 22:02:00,,0829.4,4.99,0.00,28.1,27.4,00.0,37.1,29.8,07.2,0000.0,0007.83,0003.37,0002.61
2022-03-14 22:03:00,,0829.4,5.01,0.00,28.1,27.4,00.0,37.1,29.8,07.3,0000.0,0007.80,0003.42,0002.63
2022-03-14 22:04:00,,0829.3,5.00,0.00,28.1,27.4,00.0,37.1,29.8,07.3,0000.0,0008.37,0003.41,0002.63
2022-03-14 22:05:00,,0829.4,5.00,0.00,28.1,27.4,00.0,37.1,29.8,07.2,0000.0,0008.37,0003.40,0002.62
2022-03-14 22:06:00,,0829.3,5.00,0.00,28.1,27.5,00.0,37.1,29.9,07.4,0000.0,0008.27,0003.38,0002.63
2022-03-14 22:07:00,,0829.3,4.99,0.00,28.1,27.5,00.0,37.1,29.9,07.2,0000.0,0008.22,0003.36,0002.64
2022-03-14 22:08:00,,0829.4,5.00,0.00,28.1,27.5,00.0,37.1,29.9,07.2,0000.0,0008.21,0003.35,0002.63
2022-03-14 22:09:00,,0829.4,5.00,0.00,28.2,27.5,00.0,37.1,29.9,07.2,0000.0,0008.31,0003.33,0002.61
2022-03-14 22:10:00,,0829.4,5.00,0.00,28.2,27.6,00.0,37.1,29.9,07.4,0000.0,0008.49,0003.32,0002.59
2022-03-14 22:11:00,,0829.4,5.00,0.00,28.2,27.6,00.0,37.1,29.9,07.2,0000.0,0008.87,0003.29,0002.57
2022-03-14 22:12:00,,0829.4,5.00,0.00,28.2,27.6,00.0,37.1,29.9,07.3,0000.0,0008.70,0003.28,0002.53
2022-03-14 22:13:00,,0829.4,5.00,0.00,28.2,27.6,00.0,37.1,29.9,07.2,0000.0,0008.31,0003.28,0002.49
2022-03-14 22:14:00,,0829.3,5.00,0.00,28.2,27.6,00.0,37.1,29.9,07.1,0000.0,0008.19,0003.24,0002.48
2022-03-14 22:15:00,,0829.3,5.00,0.00,28.2,27.6,00.0,37.1,30.0,07.1,0000.0,0008.06,0003.25,0002.46
2022-03-14 22:16:00,,0829.3,5.00,0.00,28.2,27.6,00.0,37.1,30.0,07.1,0000.0,0007.90,0003.23,0002.46
2022-03-14 22:17:00,,0829.3,5.00,0.00,28.2,27.6,00.0,37.1,30.0,07.3,0000.0,0008.01,0003.23,0002.45
2022-03-14 22:18:00,,0829.3,5.00,0.00,28.3,27.6,00.0,37.1,30.1,07.4,0000.0,0007.98,0003.21,0002.43
2022-03-14 22:19:00,,0829.2,4.99,0.00,28.3,27.7,00.0,37.2,30.1,07.4,0000.0,0007.95,0003.20,0002.42
2022-03-14 22:20:00,,0829.3,5.00,0.00,28.3,27.7,00.0,37.2,30.0,07.3,0000.0,0007.79,0003.17,0002.41
2022-03-14 22:21:00,,0829.3,5.01,0.00,28.3,27.7,00.0,37.2,30.1,07.3,0000.0,0007.62,0003.15,0002.39
2022-03-14 22:22:00,,0829.3,5.01,0.00,28.3,27.7,00.0,37.2,30.1,07.2,0000.0,0006.43,0003.18,0002.40
2022-03-14 22:23:00,,0829.3,5.01,0.00,28.3,27.7,00.0,37.2,30.1,07.3,0000.0,0006.23,0003.16,0002.39
2022-03-14 22:24:00,,0829.4,4.99,0.00,28.3,27.7,00.0,37.2,30.1,07.5,0000.0,0006.15,0003.13,0002.39
2022-03-14 22:25:00,,0829.4,4.99,0.00,28.3,27.7,00.0,37.2,30.0,07.2,0000.0,0006.03,0003.13,0002.39
2022-03-14 22:26:00,,0829.5,4.99,0.00,28.3,27.7,00.0,37.2,30.0,07.2,0000.0,0005.27,0003.12,0002.41
2022-03-14 22:27:00,,0829.5,5.00,0.00,28.3,27.7,00.0,37.2,30.0,07.5,0000.0,0005.25,0003.12,0002.41
2022-03-14 22:28:00,,0829.5,4.99,0.00,28.3,27.7,00.0,37.2,30.0,07.2,0000.0,0004.95,0003.10,0002.44
2022-03-14 22:29:00,,0829.5,4.99,0.00,28.3,27.7,00.0,37.2,29.9,07.1,0000.0,0004.92,0003.12,0002.49
2022-03-14 22:30:00,,0829.5,5.01,0.00,28.3,27.6,00.0,37.2,30.0,07.1,0000.0,0004.95,0003.15,0002.55
2022-03-14 22:31:00,,0829.5,5.00,0.00,28.3,27.6,00.0,37.2,30.0,07.2,0000.0,0005.15,0003.21,0002.60
2022-03-14 22:32:00,,0829.5,5.00,0.00,28.3,27.6,00.0,37.2,30.0,07.2,0000.0,0005.47,0003.26,0002.64
2022-03-14 22:33:00,,0829.5,5.01,0.00,28.3,27.7,00.0,37.2,30.0,07.1,0000.0,0005.58,0003.27,0002.67
2022-03-14 22:34:00,,0829.5,5.00,0.00,28.3,27.7,00.0,37.2,30.0,07.3,0000.0,0005.82,0003.31,0002.73
2022-03-14 22:35:00,,0829.5,5.00,0.00,28.3,27.7,00.0,37.2,30.0,07.2,0000.0,0005.76,0003.34,0002.77
2022-03-14 22:36:00,,0829.5,5.01,0.00,28.3,27.7,00.0,37.2,30.0,07.1,0000.0,0005.83,0003.35,0002.79
2022-03-14 22:37:00,,0829.5,5.00,0.00,28.3,27.7,00.0,37.2,30.1,07.3,0000.0,0005.99,0003.38,0002.79
2022-03-14 22:38:00,,0829.5,5.00,0.00,28.3,27.7,00.0,37.2,30.1,07.2,0000.0,0006.15,0003.40,0002.78
2022-03-14 22:39:00,,0829.5,5.00,0.00,28.3,27.7,00.0,37.3,30.1,07.4,0000.0,0006.12,0003.40,0002.76
2022-03-14 22:40:00,,0829.5,5.00,0.00,28.3,27.7,00.0,37.3,30.1,07.1,0000.0,0006.19,0003.42,0002.75
2022-03-14 22:41:00,,0829.5,5.00,0.00,28.3,27.7,00.0,37.3,30.0,07.1,0000.0,0006.25,0003.44,0002.75
2022-03-14 22:42:00,,0829.5,5.00,0.00,28.3,27.6,00.0,37.3,30.0,07.2,0000.0,0006.45,0003.47,0002.75
2022-03-14 22:43:00,,0829.5,5.00,0.00,28.3,27.7,00.0,37.3,30.1,07.3,0000.0,0006.34,0003.50,0002.77
2022-03-14 22:44:00,,0829.5,5.00,0.00,28.3,27.7,00.0,37.3,30.1,07.4,0000.0,0006.27,0003.50,0002.78
2022-03-14 22:45:00,,0829.5,5.00,0.00,28.3,27.7,00.0,37.3,30.0,07.3,0000.0,0006.10,0003.49,0002.77
2022-03-14 22:46:00,,0829.5,5.00,0.00,28.3,27.7,00.0,37.3,30.0,07.4,0000.0,0007.00,0003.51,0002.79
2022-03-14 22:47:00,,0829.5,5.00,0.00,28.3,27.7,00.0,37.3,30.0,07.2,0000.0,0007.54,0003.56,0002.85
2022-03-14 22:48:00,,0829.5,5.00,0.00,28.3,27.6,00.0,37.3,30.0,07.1,0000.0,0008.10,0003.58,0002.91
2022-03-14 22:49:00,,0829.5,5.01,0.00,28.3,27.7,00.0,37.3,30.0,07.3,0000.0,0008.06,0003.61,0002.97
2022-03-14 22:50:00,,0829.5,5.00,0.00,28.3,27.7,00.0,37.3,30.0,07.3,0000.0,0008.15,0003.68,0003.02
2022-03-14 22:51:00,,0829.5,5.00,0.00,28.3,27.6,00.0,37.3,30.0,07.6,0000.0,0008.29,0003.69,0003.03
2022-03-14 22:52:00,,0829.5,5.00,0.00,28.3,27.6,00.0,37.3,30.0,07.5,0000.0,0009.32,0003.71,0003.03
2022-03-14 22:53:00,,0829.5,5.00,0.00,28.3,27.6,00.0,37.3,30.0,07.3,0000.0,0009.37,0003.69,0003.06
2022-03-14 22:54:00,,0829.5,5.00,0.00,28.3,27.6,00.0,37.3,29.9,07.2,0000.0,0009.34,0003.68,0003.09
2022-03-14 22:55:00,,0829.4,5.00,0.00,28.3,27.6,00.0,37.3,30.0,07.3,0000.0,0009.27,0003.66,0003.11
2022-03-14 22:56:00,,0829.5,5.01,0.00,28.3,27.6,00.0,37.3,30.0,07.2,0000.0,0009.35,0003.68,0003.13
2022-03-14 22:57:00,,0829.5,5.01,0.00,28.3,27.6,00.0,37.3,30.0,07.3,0000.0,0008.92,0003.69,0003.14
2022-03-14 22:58:00,,0829.5,5.00,0.00,28.3,27.6,00.0,37.3,30.0,07.1,0000.0,0008.62,0003.68,0003.15
2022-03-14 22:59:00,,0829.5,5.00,0.00,28.2,27.6,00.0,37.3,30.0,07.2,0000.0,0008.79,0003.68,0003.15
